Time,TemperatureF,DewpointF,PressureIn,WindDirection,WindDirectionDegrees,WindSpeedMPH,WindSpeedGustMPH,Humidity,HourlyPrecipIn,Conditions,Clouds,dailyrainin,SoftwareType,DateUTC
2013-03-16 00:02:00,40.0,20.0,29.88,South,190,0.0,-999.0,44,-99.99,,,-99.99,,2013-03-16 06:02:00,
2013-03-16 00:12:00,40.0,20.0,29.88,South,190,0.0,-999.0,44,-99.99,,,-99.99,,2013-03-16 06:12:00,
2013-03-16 00:21:00,41.0,20.0,29.87,South,190,0.0,-999.0,43,-99.99,,,-99.99,,2013-03-16 06:21:00,
2013-03-16 00:32:00,40.0,19.0,29.86,South,190,0.0,-999.0,43,-99.99,,,-99.99,,2013-03-16 06:32:00,
2013-03-16 00:41:00,40.0,19.0,29.86,South,190,0.0,-999.0,43,-99.99,,,-99.99,,2013-03-16 06:41:00,
2013-03-16 00:52:00,38.0,20.0,29.86,South,188,0.0,-999.0,48,-99.99,,,-99.99,,2013-03-16 06:52:00,
2013-03-16 01:01:00,38.0,20.0,29.86,South,187,0.0,-999.0,47,-99.99,,,-99.99,,2013-03-16 07:01:00,
2013-03-16 01:11:00,38.0,20.0,29.86,South,187,0.0,-999.0,47,-99.99,,,-99.99,,2013-03-16 07:11:00,
2013-03-16 01:22:00,37.0,20.0,29.86,South,187,0.0,-999.0,49,-99.99,,,-99.99,,2013-03-16 07:22:00,
2013-03-16 01:32:00,36.0,21.0,29.86,South,188,0.0,-999.0,54,-99.99,,,-99.99,,2013-03-16 07:32:00,
2013-03-16 01:42:00,36.0,21.0,29.86,South,188,0.0,-999.0,54,-99.99,,,-99.99,,2013-03-16 07:42:00,
2013-03-16 01:52:00,36.0,19.0,29.85,South,188,0.0,-999.0,50,-99.99,,,-99.99,,2013-03-16 07:52:00,
2013-03-16 02:02:00,37.0,19.0,29.85,South,188,1.0,-999.0,48,-99.99,,,-99.99,,2013-03-16 08:02:00,
2013-03-16 02:12:00,37.0,19.0,29.85,South,188,1.0,-999.0,48,-99.99,,,-99.99,,2013-03-16 08:12:00,
2013-03-16 02:22:00,36.0,20.0,29.84,South,188,0.0,-999.0,51,-99.99,,,-99.99,,2013-03-16 08:22:00,
2013-03-16 02:32:00,36.0,21.0,29.83,South,187,0.0,-999.0,54,-99.99,,,-99.99,,2013-03-16 08:32:00,
2013-03-16 02:41:00,36.0,21.0,29.83,South,187,0.0,-999.0,54,-99.99,,,-99.99,,2013-03-16 08:41:00,
2013-03-16 02:52:00,36.0,19.0,29.83,South,188,0.0,-999.0,50,-99.99,,,-99.99,,2013-03-16 08:52:00,
2013-03-16 03:01:00,36.0,19.0,29.83,South,187,0.0,-999.0,50,-99.99,,,-99.99,,2013-03-16 09:01:00,
2013-03-16 03:11:00,36.0,19.0,29.83,South,187,0.0,-999.0,50,-99.99,,,-99.99,,2013-03-16 09:11:00,
2013-03-16 03:22:00,36.0,20.0,29.82,South,188,0.0,-999.0,51,-99.99,,,-99.99,,2013-03-16 09:22:00,
2013-03-16 03:32:00,36.0,19.0,29.82,South,188,0.0,-999.0,50,-99.99,,,-99.99,,2013-03-16 09:32:00,
2013-03-16 03:42:00,36.0,19.0,29.82,South,188,0.0,-999.0,50,-99.99,,,-99.99,,2013-03-16 09:42:00,
2013-03-16 03:52:00,35.0,20.0,29.81,South,187,0.0,-999.0,54,-99.99,,,-99.99,,2013-03-16 09:52:00,
2013-03-16 04:03:00,35.0,20.0,29.80,South,187,0.0,-999.0,55,-99.99,,,-99.99,,2013-03-16 10:03:00,
2013-03-16 04:12:00,35.0,20.0,29.80,South,187,0.0,-999.0,55,-99.99,,,-99.99,,2013-03-16 10:12:00,
2013-03-16 04:22:00,35.0,19.0,29.80,South,188,0.0,-999.0,52,-99.99,,,-99.99,,2013-03-16 10:22:00,
2013-03-16 04:32:00,35.0,20.0,29.79,South,188,0.0,-999.0,53,-99.99,,,-99.99,,2013-03-16 10:32:00,
2013-03-16 04:42:00,35.0,20.0,29.79,South,188,0.0,-999.0,53,-99.99,,,-99.99,,2013-03-16 10:42:00,
2013-03-16 04:52:00,35.0,21.0,29.79,South,188,0.0,-999.0,56,-99.99,,,-99.99,,2013-03-16 10:52:00,
2013-03-16 05:02:00,35.0,21.0,29.79,South,188,0.0,-999.0,56,-99.99,,,-99.99,,2013-03-16 11:02:00,
2013-03-16 05:11:00,35.0,21.0,29.79,South,188,0.0,-999.0,56,-99.99,,,-99.99,,2013-03-16 11:11:00,
2013-03-16 05:21:00,35.0,20.0,29.79,South,187,0.0,-999.0,55,-99.99,,,-99.99,,2013-03-16 11:21:00,
2013-03-16 05:32:00,35.0,20.0,29.79,South,188,0.0,-999.0,53,-99.99,,,-99.99,,2013-03-16 11:32:00,
2013-03-16 05:42:00,35.0,20.0,29.79,South,188,0.0,-999.0,53,-99.99,,,-99.99,,2013-03-16 11:42:00,
2013-03-16 05:51:00,34.0,20.0,29.78,South,188,0.0,-999.0,57,-99.99,,,-99.99,,2013-03-16 11:51:00,
2013-03-16 06:01:00,35.0,21.0,29.78,South,188,0.0,-999.0,57,-99.99,,,-99.99,,2013-03-16 12:01:00,
2013-03-16 06:12:00,35.0,21.0,29.78,South,188,0.0,-999.0,57,-99.99,,,-99.99,,2013-03-16 12:12:00,
2013-03-16 06:22:00,35.0,21.0,29.78,South,188,0.0,-999.0,56,-99.99,,,-99.99,,2013-03-16 12:22:00,
2013-03-16 06:32:00,34.0,20.0,29.77,South,187,0.0,-999.0,57,-99.99,,,-99.99,,2013-03-16 12:32:00,
2013-03-16 06:42:00,34.0,20.0,29.77,South,187,0.0,-999.0,57,-99.99,,,-99.99,,2013-03-16 12:42:00,
2013-03-16 06:52:00,35.0,21.0,29.77,South,188,0.0,-999.0,57,-99.99,,,-99.99,,2013-03-16 12:52:00,
2013-03-16 07:02:00,34.0,21.0,29.77,South,188,0.0,-999.0,58,-99.99,,,-99.99,,2013-03-16 13:02:00,
2013-03-16 07:12:00,34.0,21.0,29.77,South,188,0.0,-999.0,58,-99.99,,,-99.99,,2013-03-16 13:12:00,
2013-03-16 07:22:00,34.0,21.0,29.77,South,188,0.0,-999.0,58,-99.99,,,-99.99,,2013-03-16 13:22:00,
2013-03-16 07:32:00,34.0,21.0,29.77,South,188,0.0,-999.0,58,-99.99,,,-99.99,,2013-03-16 13:32:00,
2013-03-16 07:41:00,34.0,21.0,29.77,South,188,0.0,-999.0,58,-99.99,,,-99.99,,2013-03-16 13:41:00,
2013-03-16 07:52:00,34.0,21.0,29.77,South,187,0.0,-999.0,59,-99.99,,,-99.99,,2013-03-16 13:52:00,
2013-03-16 08:02:00,34.0,21.0,29.77,South,187,0.0,-999.0,59,-99.99,,,-99.99,,2013-03-16 14:02:00,
2013-03-16 08:12:00,34.0,21.0,29.77,South,187,0.0,-999.0,59,-99.99,,,-99.99,,2013-03-16 14:12:00,
2013-03-16 08:22:00,34.0,20.0,29.77,South,188,0.0,-999.0,57,-99.99,,,-99.99,,2013-03-16 14:22:00,
2013-03-16 08:32:00,34.0,21.0,29.76,South,188,0.0,-999.0,58,-99.99,,,-99.99,,2013-03-16 14:32:00,
2013-03-16 08:42:00,34.0,21.0,29.76,South,188,0.0,-999.0,58,-99.99,,,-99.99,,2013-03-16 14:42:00,
2013-03-16 08:51:00,35.0,22.0,29.76,South,188,0.0,-999.0,58,-99.99,,,-99.99,,2013-03-16 14:51:00,
2013-03-16 09:02:00,36.0,22.0,29.76,South,187,0.0,-999.0,56,-99.99,,,-99.99,,2013-03-16 15:02:00,
2013-03-16 09:12:00,36.0,22.0,29.76,South,187,0.0,-999.0,56,-99.99,,,-99.99,,2013-03-16 15:12:00,
2013-03-16 09:22:00,37.0,23.0,29.76,South,187,0.0,-999.0,56,-99.99,,,-99.99,,2013-03-16 15:22:00,
2013-03-16 09:33:00,38.0,23.0,29.76,South,188,0.0,-999.0,54,-99.99,,,-99.99,,2013-03-16 15:33:00,
2013-03-16 09:42:00,38.0,23.0,29.76,South,188,0.0,-999.0,54,-99.99,,,-99.99,,2013-03-16 15:42:00,
2013-03-16 09:52:00,39.0,25.0,29.76,South,188,0.0,-999.0,56,-99.99,,,-99.99,,2013-03-16 15:52:00,
2013-03-16 10:02:00,40.0,23.0,29.76,South,188,0.0,-999.0,50,-99.99,,,-99.99,,2013-03-16 16:02:00,
2013-03-16 10:12:00,40.0,23.0,29.76,South,188,0.0,-999.0,50,-99.99,,,-99.99,,2013-03-16 16:12:00,
2013-03-16 10:22:00,42.0,24.0,29.76,South,188,0.0,-999.0,48,-99.99,,,-99.99,,2013-03-16 16:22:00,
2013-03-16 10:33:00,41.0,24.0,29.76,South,187,0.0,-999.0,51,-99.99,,,-99.99,,2013-03-16 16:33:00,
2013-03-16 10:42:00,41.0,24.0,29.76,South,187,0.0,-999.0,51,-99.99,,,-99.99,,2013-03-16 16:42:00,
2013-03-16 10:52:00,42.0,26.0,29.76,South,187,0.0,-999.0,53,-99.99,,,-99.99,,2013-03-16 16:52:00,
2013-03-16 11:02:00,43.0,24.0,29.75,South,187,0.0,-999.0,47,-99.99,,,-99.99,,2013-03-16 17:02:00,
2013-03-16 11:12:00,43.0,24.0,29.75,South,187,0.0,-999.0,47,-99.99,,,-99.99,,2013-03-16 17:12:00,
2013-03-16 11:22:00,44.0,23.0,29.75,WNW,283,2.0,-999.0,43,-99.99,,,-99.99,,2013-03-16 17:22:00,
2013-03-16 11:32:00,45.0,22.0,29.75,West,263,3.0,-999.0,40,-99.99,,,-99.99,,2013-03-16 17:32:00,
2013-03-16 11:42:00,45.0,22.0,29.75,West,263,3.0,-999.0,40,-99.99,,,-99.99,,2013-03-16 17:42:00,
2013-03-16 11:52:00,46.0,23.0,29.75,South,190,2.0,-999.0,40,-99.99,,,-99.99,,2013-03-16 17:52:00,
2013-03-16 12:02:00,47.0,23.0,29.74,East,83,2.0,-999.0,39,-99.99,,,-99.99,,2013-03-16 18:02:00,
2013-03-16 12:12:00,47.0,23.0,29.74,East,83,2.0,-999.0,39,-99.99,,,-99.99,,2013-03-16 18:12:00,
2013-03-16 12:22:00,48.0,24.0,29.74,SSW,196,1.0,-999.0,39,-99.99,,,-99.99,,2013-03-16 18:22:00,
2013-03-16 12:32:00,49.0,25.0,29.73,South,178,2.0,-999.0,39,-99.99,,,-99.99,,2013-03-16 18:32:00,
2013-03-16 12:42:00,49.0,25.0,29.73,South,178,2.0,-999.0,39,-99.99,,,-99.99,,2013-03-16 18:42:00,
2013-03-16 12:52:00,49.0,25.0,29.73,SSW,200,3.0,-999.0,39,-99.99,,,-99.99,,2013-03-16 18:52:00,
2013-03-16 13:01:00,48.0,24.0,29.73,South,184,3.0,-999.0,39,-99.99,,,-99.99,,2013-03-16 19:01:00,
2013-03-16 13:11:00,48.0,24.0,29.73,South,184,3.0,-999.0,39,-99.99,,,-99.99,,2013-03-16 19:11:00,
2013-03-16 13:21:00,49.0,25.0,29.72,SW,226,2.0,-999.0,38,-99.99,,,-99.99,,2013-03-16 19:21:00,
2013-03-16 13:32:00,50.0,25.0,29.72,SSE,168,1.0,-999.0,38,-99.99,,,-99.99,,2013-03-16 19:32:00,
2013-03-16 13:42:00,50.0,25.0,29.72,SSE,168,1.0,-999.0,38,-99.99,,,-99.99,,2013-03-16 19:42:00,
2013-03-16 13:52:00,51.0,27.0,29.71,South,169,2.0,-999.0,39,-99.99,,,-99.99,,2013-03-16 19:52:00,
2013-03-16 14:02:00,52.0,27.0,29.70,South,188,3.0,-999.0,37,-99.99,,,-99.99,,2013-03-16 20:02:00,
2013-03-16 14:11:00,52.0,27.0,29.70,South,188,3.0,-999.0,37,-99.99,,,-99.99,,2013-03-16 20:11:00,
2013-03-16 14:21:00,51.0,26.0,29.70,South,173,3.0,-999.0,38,-99.99,,,-99.99,,2013-03-16 20:21:00,
2013-03-16 14:32:00,50.0,26.0,29.70,SE,132,1.0,-999.0,39,-99.99,,,-99.99,,2013-03-16 20:32:00,
2013-03-16 14:42:00,50.0,26.0,29.70,SE,132,1.0,-999.0,39,-99.99,,,-99.99,,2013-03-16 20:42:00,
2013-03-16 14:52:00,48.0,29.0,29.70,West,268,2.0,-999.0,47,-99.99,,,-99.99,,2013-03-16 20:52:00,
2013-03-16 15:02:00,46.0,29.0,29.68,North,350,2.0,-999.0,52,-99.99,,,-99.99,,2013-03-16 21:02:00,
2013-03-16 15:22:00,46.0,30.0,29.69,NNE,15,2.0,-999.0,54,-99.99,,,-99.99,,2013-03-16 21:22:00,
2013-03-16 15:32:00,47.0,33.0,29.70,SSE,163,1.0,-999.0,58,-99.99,,,-99.99,,2013-03-16 21:32:00,
2013-03-16 15:52:00,46.0,33.0,29.69,ESE,114,1.0,-999.0,60,-99.99,,,-99.99,,2013-03-16 21:52:00,
2013-03-16 16:03:00,47.0,31.0,29.68,South,188,1.0,-999.0,54,-99.99,,,-99.99,,2013-03-16 22:03:00,
2013-03-16 16:12:00,47.0,31.0,29.68,South,188,1.0,-999.0,54,-99.99,,,-99.99,,2013-03-16 22:12:00,
2013-03-16 16:22:00,48.0,28.0,29.68,West,267,3.0,-999.0,45,-99.99,,,-99.99,,2013-03-16 22:22:00,
2013-03-16 16:32:00,50.0,28.0,29.68,North,355,4.0,-999.0,42,-99.99,,,-99.99,,2013-03-16 22:32:00,
2013-03-16 16:42:00,50.0,28.0,29.68,North,355,4.0,-999.0,42,-99.99,,,-99.99,,2013-03-16 22:42:00,
2013-03-16 16:52:00,50.0,27.0,29.67,SSW,204,4.0,-999.0,40,-99.99,,,-99.99,,2013-03-16 22:52:00,
2013-03-16 17:02:00,49.0,26.0,29.68,WSW,247,4.0,-999.0,41,-99.99,,,-99.99,,2013-03-16 23:02:00,
2013-03-16 17:12:00,49.0,26.0,29.68,WSW,247,4.0,-999.0,41,-99.99,,,-99.99,,2013-03-16 23:12:00,
2013-03-16 17:22:00,49.0,28.0,29.67,West,281,4.0,-999.0,44,-99.99,,,-99.99,,2013-03-16 23:22:00,
2013-03-16 17:32:00,49.0,28.0,29.67,West,279,8.0,-999.0,44,-99.99,,,-99.99,,2013-03-16 23:32:00,
2013-03-16 17:42:00,49.0,28.0,29.67,West,279,8.0,-999.0,44,-99.99,,,-99.99,,2013-03-16 23:42:00,
2013-03-16 17:52:00,48.0,26.0,29.68,NW,313,7.0,-999.0,42,-99.99,,,-99.99,,2013-03-16 23:52:00,
2013-03-16 18:01:00,48.0,26.0,29.68,NW,313,7.0,-999.0,42,-99.99,,,-99.99,,2013-03-17 00:01:00,
2013-03-16 18:12:00,48.0,26.0,29.68,NW,313,7.0,-999.0,42,-99.99,,,-99.99,,2013-03-17 00:12:00,
2013-03-16 18:22:00,49.0,23.0,29.69,West,259,5.0,-999.0,36,-99.99,,,-99.99,,2013-03-17 00:22:00,
2013-03-16 18:32:00,48.0,22.0,29.69,South,183,1.0,-999.0,36,-99.99,,,-99.99,,2013-03-17 00:32:00,
2013-03-16 18:42:00,48.0,22.0,29.69,South,183,1.0,-999.0,36,-99.99,,,-99.99,,2013-03-17 00:42:00,
2013-03-16 18:52:00,47.0,23.0,29.68,SSW,198,1.0,-999.0,38,-99.99,,,-99.99,,2013-03-17 00:52:00,
2013-03-16 19:02:00,46.0,23.0,29.69,NNW,346,2.0,-999.0,40,-99.99,,,-99.99,,2013-03-17 01:02:00,
2013-03-16 19:11:00,46.0,23.0,29.69,NNW,346,2.0,-999.0,40,-99.99,,,-99.99,,2013-03-17 01:11:00,
2013-03-16 19:22:00,45.0,22.0,29.70,WSW,255,1.0,-999.0,40,-99.99,,,-99.99,,2013-03-17 01:22:00,
2013-03-16 19:32:00,43.0,24.0,29.70,WSW,255,0.0,-999.0,46,-99.99,,,-99.99,,2013-03-17 01:32:00,
2013-03-16 19:41:00,43.0,24.0,29.70,WSW,255,0.0,-999.0,46,-99.99,,,-99.99,,2013-03-17 01:41:00,
2013-03-16 19:52:00,43.0,22.0,29.70,WSW,255,0.0,-999.0,43,-99.99,,,-99.99,,2013-03-17 01:52:00,
2013-03-16 20:02:00,42.0,23.0,29.72,WNW,295,2.0,-999.0,47,-99.99,,,-99.99,,2013-03-17 02:02:00,
2013-03-16 20:11:00,42.0,23.0,29.72,WNW,295,2.0,-999.0,47,-99.99,,,-99.99,,2013-03-17 02:11:00,
2013-03-16 20:22:00,42.0,23.0,29.74,NNW,327,2.0,-999.0,46,-99.99,,,-99.99,,2013-03-17 02:22:00,
2013-03-16 20:32:00,42.0,22.0,29.74,WNW,289,2.0,-999.0,44,-99.99,,,-99.99,,2013-03-17 02:32:00,
2013-03-16 20:42:00,42.0,22.0,29.74,WNW,289,2.0,-999.0,44,-99.99,,,-99.99,,2013-03-17 02:42:00,
2013-03-16 20:52:00,43.0,21.0,29.73,ENE,65,2.0,-999.0,41,-99.99,,,-99.99,,2013-03-17 02:52:00,
2013-03-16 21:02:00,43.0,22.0,29.73,ESE,104,0.0,-999.0,42,-99.99,,,-99.99,,2013-03-17 03:02:00,
2013-03-16 21:11:00,43.0,22.0,29.73,ESE,104,0.0,-999.0,42,-99.99,,,-99.99,,2013-03-17 03:11:00,
2013-03-16 21:21:00,42.0,23.0,29.74,ESE,104,0.0,-999.0,46,-99.99,,,-99.99,,2013-03-17 03:21:00,
2013-03-16 21:33:00,40.0,21.0,29.74,ESE,103,0.0,-999.0,47,-99.99,,,-99.99,,2013-03-17 03:33:00,
2013-03-16 21:42:00,40.0,21.0,29.74,ESE,103,0.0,-999.0,47,-99.99,,,-99.99,,2013-03-17 03:42:00,
2013-03-16 21:52:00,39.0,21.0,29.74,ESE,103,0.0,-999.0,48,-99.99,,,-99.99,,2013-03-17 03:52:00,
2013-03-16 22:02:00,39.0,20.0,29.75,ESE,104,0.0,-999.0,46,-99.99,,,-99.99,,2013-03-17 04:02:00,
2013-03-16 22:12:00,39.0,20.0,29.75,ESE,104,0.0,-999.0,46,-99.99,,,-99.99,,2013-03-17 04:12:00,
2013-03-16 22:22:00,38.0,20.0,29.76,ESE,104,0.0,-999.0,48,-99.99,,,-99.99,,2013-03-17 04:22:00,
2013-03-16 22:32:00,37.0,21.0,29.76,ESE,104,0.0,-999.0,52,-99.99,,,-99.99,,2013-03-17 04:32:00,
2013-03-16 22:42:00,37.0,21.0,29.76,ESE,104,0.0,-999.0,52,-99.99,,,-99.99,,2013-03-17 04:42:00,
2013-03-16 22:52:00,36.0,20.0,29.76,ESE,103,0.0,-999.0,52,-99.99,,,-99.99,,2013-03-17 04:52:00,
2013-03-16 23:02:00,36.0,20.0,29.77,ESE,103,0.0,-999.0,52,-99.99,,,-99.99,,2013-03-17 05:02:00,
2013-03-16 23:11:00,36.0,20.0,29.77,ESE,103,0.0,-999.0,52,-99.99,,,-99.99,,2013-03-17 05:11:00,
2013-03-16 23:22:00,35.0,21.0,29.77,ESE,104,0.0,-999.0,56,-99.99,,,-99.99,,2013-03-17 05:22:00,
2013-03-16 23:32:00,35.0,20.0,29.77,ESE,104,0.0,-999.0,55,-99.99,,,-99.99,,2013-03-17 05:32:00,
2013-03-16 23:42:00,35.0,20.0,29.77,ESE,104,0.0,-999.0,55,-99.99,,,-99.99,,2013-03-17 05:42:00,
2013-03-16 23:51:00,34.0,21.0,29.77,ESE,104,0.0,-999.0,58,-99.99,,,-99.99,,2013-03-17 05:51:00,